Change the Weather History Date:

Saturday, June 7, 2014

  Actual Average (KMRH) Record (KMRH)
Temperature  
Mean Temperature 76 °F -  
Max Temperature 80 °F 82 °F 91 °F (2008)
Min Temperature 68 °F 66 °F 57 °F (1977)
Cooling Degree Days 10    
Growing Degree Days 26 (Base 50)    
Moisture  
Dew Point 62 °F    
Average Humidity 62    
Maximum Humidity 81    
Minimum Humidity 52    
Precipitation  
Precipitation 0.00 in - - ()
Sea Level Pressure  
Sea Level Pressure 29.99 in    
Wind  
Wind Speed 12 mph (ENE)    
Max Wind Speed 14 mph    
Max Gust Speed 21 mph    
Visibility 10 miles    
Events      
Averages and records for this station are not official NWS values.
T = Trace of Precipitation, MM = Missing Value Source: NWS Daily Summary

Daily Weather History Graph

Daily Weather History Graph

Search for Another Location

Airport or City:

Trip Planner

Search our weather history database for the weather conditions in past years. The results will help you decide how hot, cold, wet, or windy it might be!

Date:

Astronomy

Jun. 07, 2014 Rise Set
Actual Time 5:51 AM EDT 8:18 PM EDT
Civil Twilight 5:22 AM EDT 8:47 PM EDT
Nautical Twilight 4:45 AM EDT 9:23 PM EDT
Astronomical Twilight 4:05 AM EDT 10:03 PM EDT
Moon 2:45 PM EDT (6/7) 1:59 AM EDT (6/7)
Length of Visible Light 15h 25m
Length of Day
14h 26m
Waxing Gibbous, 67% of the Moon is Illuminated
Jun 7
Waxing Gibbous
Jun 13
Full
Jun 19
Last Quarter
Jun 27
New
Jul 5
First Quarter

Hourly Weather History & Observations

Time (EDT) Temp. Dew Point Humidity Pressure Visibility Wind Dir Wind Speed Gust Speed Precip Events Conditions
12:56 AM 73.0 °F 66.9 °F 81% 29.97 in 10.0 mi East 11.5 mph - N/A   Overcast
1:56 AM 73.0 °F 66.9 °F 81% 29.96 in 10.0 mi ENE 10.4 mph - N/A   Scattered Clouds
2:56 AM 73.9 °F 66.0 °F 76% 29.95 in 10.0 mi ENE 12.7 mph - N/A   Clear
3:56 AM 73.0 °F 66.0 °F 79% 29.96 in 10.0 mi ENE 13.8 mph - N/A   Clear
4:56 AM 73.9 °F 64.9 °F 73% 29.95 in 10.0 mi East 12.7 mph - N/A   Partly Cloudy
5:56 AM 75.0 °F 62.1 °F 64% 29.95 in 10.0 mi ENE 13.8 mph - N/A   Clear
6:56 AM 77.0 °F 62.1 °F 60% 29.97 in 10.0 mi ENE 12.7 mph - N/A   Clear
7:56 AM 78.1 °F 61.0 °F 56% 29.99 in 10.0 mi ENE 13.8 mph - N/A   Clear
8:56 AM 79.0 °F 62.1 °F 56% 30.01 in 10.0 mi NE 12.7 mph - N/A   Clear
9:56 AM 79.0 °F 60.1 °F 52% 30.02 in 10.0 mi NE 12.7 mph - N/A   Clear
10:56 AM 79.0 °F 60.1 °F 52% 30.02 in 10.0 mi NE 12.7 mph - N/A   Clear
11:56 AM 79.0 °F 60.1 °F 52% 30.01 in 10.0 mi ENE 12.7 mph - N/A   Clear
12:56 PM 79.0 °F 60.1 °F 52% 30.02 in 10.0 mi NE 10.4 mph - N/A   Clear
1:56 PM 79.0 °F 61.0 °F 54% 30.01 in 10.0 mi ENE 13.8 mph - N/A   Clear
2:56 PM 79.0 °F 62.1 °F 56% 30.00 in 10.0 mi ENE 13.8 mph - N/A   Clear
3:56 PM 79.0 °F 61.0 °F 54% 29.99 in 10.0 mi ENE 13.8 mph 20.7 mph N/A   Clear
4:56 PM 78.1 °F 61.0 °F 56% 29.98 in 10.0 mi ENE 10.4 mph - N/A   Clear
5:56 PM 77.0 °F 61.0 °F 58% 29.99 in 10.0 mi ENE 13.8 mph - N/A   Clear
6:56 PM 75.9 °F 61.0 °F 60% 30.00 in 10.0 mi ENE 13.8 mph - N/A   Clear
7:56 PM 75.0 °F 60.1 °F 60% 30.00 in 10.0 mi ENE 13.8 mph - N/A   Clear
8:56 PM 73.0 °F 59.0 °F 61% 30.00 in 10.0 mi ENE 9.2 mph - N/A   Clear
9:56 PM 73.0 °F 57.9 °F 59% 30.01 in 10.0 mi ENE 9.2 mph - N/A   Clear
10:56 PM 72.0 °F 59.0 °F 64% 30.01 in 10.0 mi East 6.9 mph - N/A   Clear
11:56 PM 68.0 °F 60.1 °F 76% 30.01 in 10.0 mi SSW 3.5 mph - N/A   Clear